Regional Weather Roundup
Issued by NWS

Home | Current Version | Previous Version | Text Only | Print | Product List | Glossary On
Versions: 1 2 3 4 5 6 7 8 9 10 11 12 13 14 15 16 17 18 19 20 21 22 23 24 25 26 27 28 29 30 31 32 33 34 35 36 37 38 39 40 41 42 43 44 45 46 47 48 49 50
000
ASUS45 KREV 271410
RWRNV
NEVADA REGIONAL WEATHER ROUNDUP
NATIONAL WEATHER SERVICE RENO NV
600 AM PST THU NOV 27 2014

NOTE: "FAIR" INDICATES FEW OR NO CLOUDS BELOW 12,000 FEET WITH NO
SIGNIFICANT WEATHER AND/OR OBSTRUCTIONS TO VISIBILITY.

NVZ001-003-004-271500-
WESTERN NEVADA

CITY           SKY/WX    TMP DP  RH WIND       PRES   REMARKS
RENO           MOCLDY    42  26  53 CALM      30.25S
CARSON CITY    FAIR      36  27  69 CALM      30.28S
MINDEN         FAIR      37  21  52 NE5       30.29
SLIDE MTN        N/A     37  19  48 W41         N/A
PYRAMID LAKE     N/A     48 N/A N/A S6          N/A
FALLON         CLOUDY    41  23  48 CALM      30.25S
LOVELOCK       CLOUDY    33  19  56 W3        30.25F
HAWTHORNE      CLEAR     45  21  39 CALM      30.28S
$$

NVZ002-CAZ072-073-271500-
NORTHERN AND CENTRAL SIERRA

CITY           SKY/WX    TMP DP  RH WIND       PRES   REMARKS
S. LAKE TAHOE  PTCLDY    44  24  45 SW3       30.33S
TRUCKEE        MOCLDY    32  23  69 CALM      30.32S
SQUAW VLY 8000 NOT AVBL
SUSANVILLE     CLEAR     34  28  80 NW7       30.25
BLUE CANYON    MOCLDY    54  20  26 SE8G17    30.32S
MAMMOTH LAKES  FAIR      27  10  50 CALM      30.43S
BRIDGEPORT     FAIR      31  20  63 CALM      30.37S
$$

NVZ030-031-036-271500-
NORTHERN NEVADA

CITY           SKY/WX    TMP DP  RH WIND       PRES   REMARKS
ELKO           CLOUDY    33  28  81 CALM      30.30R
WINNEMUCCA     CLOUDY    45  29  53 CALM      30.24S
WENDOVER       CLOUDY    34  25  69 CALM      30.28S
$$

NVZ035-037-271500-
CENTRAL NEVADA

CITY           SKY/WX    TMP DP  RH WIND       PRES   REMARKS
ELY            MOCLDY    28  15  58 S9        30.39F
EUREKA           N/A     35  20  54 SW9       30.35S
$$

NVZ013-014-271500-
SOUTH CENTRAL NEVADA

CITY           SKY/WX    TMP DP  RH WIND       PRES   REMARKS
TONOPAH        CLOUDY    37  17  44 N7        30.37F
$$

NVZ017-020-022-271500-
SOUTHERN NEVADA

CITY           SKY/WX    TMP DP  RH WIND       PRES   REMARKS
LAS VEGAS      CLEAR     45  20  36 SW9       30.27R
N. LAS VEGAS   CLEAR     42  21  43 W3        30.30R
NELLIS AFB     PTCLDY    39  14  36 CALM      30.31R
HENDERSON      CLEAR     43  16  33 S9        30.32R
MERCURY        NOT AVBL
$$


USA.gov is the U.S. government's official web portal to all federal, state and local government web resources and services.